Location: Unspecified
(48.8656°N, 0.0000°E)
Time: 23:25:43
(UTC+00:00)

Altair - Pass Details

Date: 21 June 2019
Orbit: 1501 x 1683 km, 47.2° (Epoch: 19 July)

Event Time Altitude Azimuth Distance (km) Brightness Sun altitude
Rises 22:58:25 0° 269° (W) 4,774 10.3 -16.3°
Reaches altitude 10° 23:01:27 10° 269° (W) 3,813 9.7 -16.4°
Maximum altitude 23:11:15 82° 184° (S) 1,660 7.5 -16.8°
Drops below altitude 10° 23:21:22 10° 98° (E) 3,933 9.5 -17.1°
Sets 23:24:33 0° 98° (E) 4,929 10.0 -17.2°
